SIA720 WSSS-VTBS

Flight info

Callsign SIA720
Flight time N/A
Altitude 34000
Route VMR6A VMR B469 VPK M751 VKB M644 ALUMO Y12 ALEMI TUMGA1C
Aircraft B77W/H-SDE1E2E3FGHIJ2J3J4J5M1RWXY/LB1D1

Departure

Time 2026-05-05 12:40
Airport Singapore Changi Airport (WSSS)

Arrival

Time N/A
Airport Suvarnabhumi Airport (VTBS)
Time Latitude Longitude Altitude Speed Heading
2026-05-05 12:04 1.35908 103.99206 35 ft 0 kts 293°
2026-05-05 12:14 1.35905 103.99211 35 ft 2 kts 293°
2026-05-05 12:14 1.35903 103.99217 35 ft 2 kts 293°
2026-05-05 12:14 1.35898 103.99227 35 ft 2 kts 293°
2026-05-05 12:15 1.35894 103.99236 35 ft 2 kts 293°
2026-05-05 12:15 1.35891 103.99245 35 ft 2 kts 293°
2026-05-05 12:15 1.35886 103.99255 35 ft 2 kts 293°
2026-05-05 12:15 1.35882 103.99264 35 ft 1 kts 315°
2026-05-05 12:16 1.35874 103.99268 35 ft 2 kts 355°
2026-05-05 12:16 1.35865 103.99268 35 ft 1 kts 27°
2026-05-05 12:16 1.35855 103.99262 35 ft 2 kts 30°
2026-05-05 12:16 1.35845 103.99257 35 ft 2 kts 26°
2026-05-05 12:17 1.35833 103.99251 35 ft 2 kts 24°
2026-05-05 12:17 1.35823 103.99247 35 ft 2 kts 24°
2026-05-05 12:17 1.35814 103.99242 35 ft 2 kts 24°
2026-05-05 12:17 1.35804 103.99238 35 ft 2 kts 24°
2026-05-05 12:18 1.35794 103.99234 35 ft 1 kts 24°
2026-05-05 12:18 1.35784 103.99229 35 ft 1 kts 24°
2026-05-05 12:18 1.35775 103.99226 35 ft 1 kts 24°
2026-05-05 12:18 1.35763 103.99220 35 ft 1 kts 24°
2026-05-05 12:19 1.35753 103.99216 35 ft 0 kts 24°
2026-05-05 12:19 1.35753 103.99215 35 ft 0 kts 24°
2026-05-05 12:23 1.35758 103.99218 35 ft 2 kts 25°
2026-05-05 12:23 1.35769 103.99225 35 ft 3 kts 42°
2026-05-05 12:23 1.35783 103.99239 35 ft 5 kts 46°
2026-05-05 12:23 1.35802 103.99260 35 ft 7 kts 50°
2026-05-05 12:24 1.35822 103.99286 35 ft 9 kts 52°
2026-05-05 12:24 1.35848 103.99321 35 ft 10 kts 54°
2026-05-05 12:24 1.35872 103.99364 35 ft 12 kts 65°
2026-05-05 12:24 1.35879 103.99414 35 ft 12 kts 91°
2026-05-05 12:25 1.35869 103.99467 35 ft 14 kts 108°
2026-05-05 12:25 1.35842 103.99514 35 ft 11 kts 139°
2026-05-05 12:25 1.35795 103.99528 35 ft 12 kts 184°
2026-05-05 12:25 1.35742 103.99515 35 ft 13 kts 201°
2026-05-05 12:26 1.35666 103.99482 34 ft 15 kts 203°
2026-05-05 12:26 1.35596 103.99452 34 ft 16 kts 203°
2026-05-05 12:26 1.35522 103.99423 35 ft 18 kts 201°
2026-05-05 12:26 1.35459 103.99397 35 ft 18 kts 202°
2026-05-05 12:27 1.35383 103.99366 35 ft 19 kts 202°
2026-05-05 12:27 1.35315 103.99337 35 ft 20 kts 203°
2026-05-05 12:27 1.35247 103.99309 35 ft 21 kts 202°
2026-05-05 12:27 1.35174 103.99277 35 ft 21 kts 203°
2026-05-05 12:28 1.35030 103.99219 35 ft 23 kts 201°
2026-05-05 12:28 1.34936 103.99178 35 ft 23 kts 204°
2026-05-05 12:28 1.34853 103.99141 35 ft 24 kts 204°
2026-05-05 12:29 1.34762 103.99101 34 ft 25 kts 203°
2026-05-05 12:29 1.34550 103.99011 35 ft 26 kts 203°
2026-05-05 12:29 1.34421 103.98956 35 ft 27 kts 203°
2026-05-05 12:30 1.34259 103.98888 35 ft 28 kts 203°
2026-05-05 12:30 1.34173 103.98852 35 ft 28 kts 203°
2026-05-05 12:30 1.34020 103.98787 34 ft 26 kts 202°
2026-05-05 12:30 1.33947 103.98757 34 ft 9 kts 202°
2026-05-05 12:31 1.33914 103.98743 34 ft 6 kts 202°
2026-05-05 12:31 1.33884 103.98731 35 ft 6 kts 203°
2026-05-05 12:31 1.33848 103.98715 35 ft 8 kts 204°
2026-05-05 12:31 1.33788 103.98689 34 ft 14 kts 203°
2026-05-05 12:32 1.33709 103.98655 35 ft 18 kts 203°
2026-05-05 12:32 1.33676 103.98641 34 ft 19 kts 202°
2026-05-05 12:32 1.33516 103.98575 34 ft 19 kts 203°
2026-05-05 12:33 1.33307 103.98488 34 ft 19 kts 202°
2026-05-05 12:33 1.33280 103.98477 34 ft 19 kts 202°
2026-05-05 12:33 1.33207 103.98446 34 ft 7 kts 203°
2026-05-05 12:33 1.33161 103.98426 35 ft 9 kts 203°
2026-05-05 12:34 1.33117 103.98408 34 ft 7 kts 202°
2026-05-05 12:34 1.33088 103.98395 34 ft 3 kts 204°
2026-05-05 12:34 1.33071 103.98388 34 ft 4 kts 204°
2026-05-05 12:34 1.33051 103.98379 34 ft 4 kts 204°
2026-05-05 12:35 1.33015 103.98362 35 ft 5 kts 205°
2026-05-05 12:35 1.32983 103.98357 34 ft 4 kts 166°
2026-05-05 12:35 1.32959 103.98369 35 ft 3 kts 140°
2026-05-05 12:35 1.32947 103.98383 35 ft 0 kts 121°
2026-05-05 12:36 1.32946 103.98383 35 ft 0 kts 121°
2026-05-05 12:37 1.32935 103.98402 35 ft 7 kts 119°
2026-05-05 12:37 1.32906 103.98472 35 ft 6 kts 98°
2026-05-05 12:37 1.32920 103.98514 34 ft 10 kts 40°
2026-05-05 12:38 1.32943 103.98527 35 ft 0 kts 26°
2026-05-05 12:38 1.32945 103.98528 35 ft 1 kts 24°
2026-05-05 12:38 1.32971 103.98538 35 ft 13 kts 22°
2026-05-05 12:39 1.33153 103.98613 35 ft 72 kts 22°
2026-05-05 12:39 1.33575 103.98791 35 ft 130 kts 22°
2026-05-05 12:40 1.35905 103.99776 1343 ft 193 kts 24°
2026-05-05 12:40 1.36957 104.00218 2032 ft 191 kts 25°
2026-05-05 12:40 1.37881 104.00611 2339 ft 203 kts 25°
2026-05-05 12:40 1.39062 104.01112 2758 ft 216 kts 24°
2026-05-05 12:41 1.39927 104.01478 3043 ft 226 kts 24°
2026-05-05 12:41 1.41083 104.01966 3431 ft 237 kts 24°
2026-05-05 12:41 1.42795 104.02689 4009 ft 255 kts 23°
2026-05-05 12:41 1.44296 104.03323 4613 ft 263 kts 23°
2026-05-05 12:42 1.47084 104.04501 5958 ft 269 kts 22°
2026-05-05 12:42 1.48784 104.04919 6675 ft 273 kts
2026-05-05 12:42 1.50205 104.04753 7175 ft 278 kts 343°
2026-05-05 12:43 1.52170 104.03869 8026 ft 282 kts 333°
2026-05-05 12:43 1.53883 104.02937 8728 ft 287 kts 332°
2026-05-05 12:43 1.55400 104.02107 9294 ft 293 kts 332°
2026-05-05 12:44 1.61103 103.99023 11020 ft 326 kts 333°
2026-05-05 12:44 1.63441 103.97763 11523 ft 344 kts 333°
2026-05-05 12:45 1.67716 103.95457 12413 ft 373 kts 333°
2026-05-05 12:45 1.69495 103.94497 12781 ft 384 kts 333°
2026-05-05 12:45 1.71350 103.93497 13157 ft 395 kts 333°
2026-05-05 12:45 1.73700 103.92282 13650 ft 405 kts 338°
2026-05-05 12:46 1.76395 103.91381 14321 ft 410 kts 348°
2026-05-05 12:46 1.79231 103.90974 15076 ft 413 kts 357°
2026-05-05 12:46 1.82060 103.90779 15858 ft 416 kts 358°
2026-05-05 12:46 1.84986 103.90594 16566 ft 422 kts 358°
2026-05-05 12:47 1.87916 103.90408 17231 ft 428 kts 358°
2026-05-05 12:47 1.90911 103.90219 17902 ft 433 kts 358°
2026-05-05 12:47 1.93907 103.90029 18594 ft 437 kts 358°
2026-05-05 12:47 1.96939 103.89836 19296 ft 440 kts 358°
2026-05-05 12:48 2.00038 103.89639 19930 ft 445 kts 358°
2026-05-05 12:48 2.03164 103.89440 20525 ft 450 kts 358°
2026-05-05 12:48 2.06349 103.89236 21129 ft 454 kts 358°
2026-05-05 12:48 2.09498 103.89036 21713 ft 458 kts 358°
2026-05-05 12:49 2.12645 103.88835 22277 ft 462 kts 358°
2026-05-05 12:49 2.15851 103.88631 22876 ft 465 kts 358°
2026-05-05 12:49 2.19109 103.88423 23467 ft 469 kts 358°
2026-05-05 12:49 2.22419 103.88213 24023 ft 473 kts 358°
2026-05-05 12:50 2.25713 103.88003 24545 ft 478 kts 358°
2026-05-05 12:50 2.29031 103.87791 25101 ft 481 kts 358°
2026-05-05 12:50 2.32191 103.87590 25618 ft 485 kts 358°
2026-05-05 12:50 2.35585 103.87351 26146 ft 489 kts 355°
2026-05-05 12:51 2.38964 103.86732 26652 ft 496 kts 346°
2026-05-05 12:51 2.42276 103.85592 27169 ft 501 kts 338°
2026-05-05 12:51 2.45438 103.84178 27717 ft 505 kts 337°
2026-05-05 12:51 2.48552 103.82749 28224 ft 508 kts 336°
2026-05-05 12:52 2.51813 103.81252 28735 ft 512 kts 337°
2026-05-05 12:52 2.53948 103.80272 29065 ft 514 kts 336°
2026-05-05 12:52 2.58280 103.78285 29906 ft 515 kts 336°
2026-05-05 12:52 2.61484 103.76816 30709 ft 512 kts 336°
2026-05-05 12:53 2.63673 103.75813 31275 ft 509 kts 336°
2026-05-05 12:53 2.67948 103.73855 32298 ft 504 kts 336°
2026-05-05 12:53 2.70833 103.72533 32951 ft 502 kts 336°
2026-05-05 12:53 2.74043 103.71067 33658 ft 501 kts 337°
2026-05-05 12:54 2.80363 103.68237 33833 ft 500 kts 337°
2026-05-05 12:54 2.83424 103.66868 33832 ft 499 kts 337°
2026-05-05 12:55 2.89740 103.64043 33833 ft 499 kts 337°
2026-05-05 12:55 2.95897 103.61302 33829 ft 498 kts 337°
2026-05-05 12:56 3.02240 103.58481 33829 ft 499 kts 337°
2026-05-05 12:56 3.08430 103.55727 33828 ft 499 kts 337°
2026-05-05 12:57 3.14281 103.53122 33834 ft 499 kts 337°
2026-05-05 12:58 3.26733 103.47530 33842 ft 499 kts 337°
2026-05-05 12:58 3.31993 103.45164 33846 ft 499 kts 337°
2026-05-05 12:59 3.37679 103.42604 33849 ft 500 kts 336°
2026-05-05 13:01 3.64224 103.31989 33840 ft 500 kts 339°
2026-05-05 13:02 3.76982 103.26926 33835 ft 501 kts 339°
2026-05-05 13:03 3.87645 103.22689 33842 ft 500 kts 339°